| time (UTC) | temp C | wind direction | speed KPH | gust KPH | rain 1hr cm | rain 24hr cm | rain mn cm | humidity % | barometer mb |
| 20260507164004 | 17 | 256 | 0.0 | 3.2 | 0.00 | 0.10 | 0.05 | 37 | |
| 20260507163504 | 18 | 266 | 0.0 | 4.8 | 0.00 | 0.10 | 0.05 | 35 | |
| 20260507163004 | 18 | 250 | 0.0 | 8.0 | 0.00 | 0.13 | 0.05 | 33 | |
| 20260507162504 | 19 | 236 | 0.0 | 8.0 | 0.00 | 0.13 | 0.05 | 31 | |
| 20260507162004 | 20 | 283 | 3.2 | 6.4 | 0.00 | 0.13 | 0.05 | 31 | |
| 20260507161504 | 20 | 346 | 0.0 | 6.4 | 0.00 | 0.13 | 0.05 | 34 | |
| 20260507161004 | 19 | 33 | 0.0 | 3.2 | 0.00 | 0.13 | 0.05 | 36 | |
| 20260507160504 | 18 | 54 | 0.0 | 3.2 | 0.00 | 0.13 | 0.05 | 41 | |
| 20260507160004 | 18 | 227 | 0.0 | 3.2 | 0.00 | 0.13 | 0.05 | 41 | |
| 20260507155504 | 17 | 248 | 0.0 | 4.8 | 0.00 | 0.13 | 0.05 | 41 | |
| 20260507155004 | 17 | 265 | 0.0 | 4.8 | 0.00 | 0.13 | 0.05 | 41 | |
| 20260507154504 | 17 | 255 | 0.0 | 4.8 | 0.00 | 0.13 | 0.05 | 40 | |
| 20260507154004 | 17 | 255 | 1.6 | 3.2 | 0.00 | 0.13 | 0.05 | 40 | |
| 20260507153504 | 17 | 274 | 0.0 | 3.2 | 0.00 | 0.13 | 0.05 | 41 | |
| 20260507153004 | 17 | 290 | 0.0 | 4.8 | 0.00 | 0.13 | 0.05 | 39 | |
| 20260507152504 | 17 | 98 | 0.0 | 4.8 | 0.00 | 0.13 | 0.05 | 39 | |
| 20260507152004 | 17 | 265 | 0.0 | 3.2 | 0.00 | 0.13 | 0.05 | 39 | |
| 20260507151504 | 18 | 276 | 0.0 | 3.2 | 0.00 | 0.13 | 0.05 | 38 | |
| 20260507151004 | 18 | 274 | 0.0 | 3.2 | 0.00 | 0.13 | 0.05 | 39 | |
| 20260507150504 | 18 | 271 | 1.6 | 4.8 | 0.00 | 0.13 | 0.05 | 38 | |
| 20260507150005 | 18 | 272 | 1.6 | 4.8 | 0.00 | 0.13 | 0.05 | 38 | |
| 20260507145504 | 18 | 357 | 0.0 | 3.2 | 0.00 | 0.13 | 0.05 | 39 | |
| 20260507145004 | 17 | 355 | 0.0 | 3.2 | 0.00 | 0.13 | 0.05 | 41 | |
| 20260507144504 | 17 | 246 | 0.0 | 3.2 | 0.00 | 0.13 | 0.05 | 42 | |
| 20260507144004 | 17 | 240 | 0.0 | 6.4 | 0.00 | 0.13 | 0.05 | 40 | |
| 20260507143504 | 17 | 260 | 0.0 | 6.4 | 0.00 | 0.13 | 0.05 | 40 | |
| 20260507143004 | 17 | 256 | 1.6 | 6.4 | 0.00 | 0.13 | 0.05 | 36 | |
| 20260507142504 | 18 | 254 | 0.0 | 6.4 | 0.00 | 0.13 | 0.05 | 35 | |
| 20260507142004 | 18 | 269 | 1.6 | 9.7 | 0.00 | 0.13 | 0.05 | 34 | |
| 20260507141504 | 18 | 317 | 0.0 | 9.7 | 0.00 | 0.13 | 0.05 | 33 | |
| 20260507141004 | 19 | 213 | 1.6 | 9.7 | 0.00 | 0.13 | 0.05 | 26 | |
| 20260507140504 | 18 | 202 | 0.0 | 4.8 | 0.00 | 0.13 | 0.05 | 30 | |
| 20260507140004 | 18 | 257 | 0.0 | 9.7 | 0.00 | 0.13 | 0.05 | 30 | |
| 20260507135504 | 18 | 243 | 0.0 | 9.7 | 0.00 | 0.13 | 0.05 | 29 | |
| 20260507135004 | 18 | 197 | 3.2 | 9.7 | 0.00 | 0.13 | 0.05 | 29 | |
| 20260507134504 | 18 | 203 | 1.6 | 6.4 | 0.00 | 0.13 | 0.05 | 29 | |
| 20260507134004 | 18 | 271 | 3.2 | 8.0 | 0.00 | 0.13 | 0.05 | 28 | |
| 20260507133504 | 18 | 276 | 0.0 | 8.0 | 0.00 | 0.13 | 0.05 | 29 | |
| 20260507133004 | 18 | 240 | 1.6 | 8.0 | 0.00 | 0.13 | 0.05 | 30 | |
| 20260507132504 | 18 | 225 | 0.0 | 9.7 | 0.00 | 0.13 | 0.05 | 32 | |
| 20260507132004 | 18 | 273 | 3.2 | 9.7 | 0.00 | 0.15 | 0.05 | 32 | |
| 20260507131504 | 18 | 277 | 3.2 | 9.7 | 0.00 | 0.15 | 0.05 | 30 | |
| 20260507131004 | 19 | 279 | 3.2 | 6.4 | 0.00 | 0.15 | 0.05 | 28 | |
| 20260507130504 | 19 | 270 | 3.2 | 6.4 | 0.00 | 0.15 | 0.05 | 29 | |
| 20260507130004 | 19 | 278 | 3.2 | 9.7 | 0.00 | 0.15 | 0.05 | 29 | |
| 20260507125504 | 18 | 311 | 1.6 | 9.7 | 0.00 | 0.15 | 0.05 | 28 | |
| 20260507125004 | 18 | 2 | 1.6 | 6.4 | 0.00 | 0.15 | 0.05 | 31 | |
| 20260507124504 | 20 | 357 | 1.6 | 4.8 | 0.00 | 0.15 | 0.05 | 31 | |
| 20260507124004 | 20 | 28 | 1.6 | 4.8 | 0.00 | 0.15 | 0.05 | 33 | |
| 20260507123504 | 20 | 39 | 0.0 | 4.8 | 0.00 | 0.18 | 0.05 | 36 | |
| 20260507123004 | 18 | 5 | 0.0 | 4.8 | 0.00 | 0.18 | 0.05 | 37 | |
| 20260507122504 | 18 | 3 | 1.6 | 4.8 | 0.00 | 0.18 | 0.05 | 37 | |
| 20260507122004 | 18 | 347 | 1.6 | 4.8 | 0.00 | 0.18 | 0.05 | 37 | |
| 20260507121504 | 18 | 297 | 0.0 | 11.3 | 0.00 | 0.20 | 0.05 | 37 | |
| 20260507121004 | 17 | 321 | 1.6 | 11.3 | 0.00 | 0.20 | 0.05 | 36 | |
| 20260507120504 | 17 | 329 | 0.0 | 6.4 | 0.00 | 0.23 | 0.05 | 41 | |
| 20260507120005 | 17 | 300 | 0.0 | 6.4 | 0.00 | 0.23 | 0.05 | 41 | |
| 20260507115504 | 16 | 284 | 0.0 | 6.4 | 0.00 | 0.23 | 0.05 | 42 | |
| 20260507115004 | 16 | 282 | 0.0 | 6.4 | 0.00 | 0.23 | 0.05 | 42 | |
| 20260507114504 | 16 | 268 | 3.2 | 6.4 | 0.00 | 0.28 | 0.05 | 44 | |
| 20260507114004 | 16 | 280 | 0.0 | 6.4 | 0.00 | 0.28 | 0.05 | 44 | |
| 20260507113504 | 16 | 289 | 1.6 | 6.4 | 0.00 | 0.36 | 0.05 | 43 | |
| 20260507113004 | 17 | 299 | 1.6 | 6.4 | 0.00 | 0.53 | 0.05 | 43 | |
| 20260507112504 | 17 | 295 | 3.2 | 6.4 | 0.00 | 0.61 | 0.05 | 43 | |
| 20260507112004 | 16 | 288 | 1.6 | 6.4 | 0.00 | 0.64 | 0.05 | 45 | |
| 20260507111504 | 16 | 281 | 1.6 | 6.4 | 0.00 | 0.64 | 0.05 | 48 | |
| 20260507111004 | 16 | 180 | 0.0 | 1.6 | 0.00 | 0.66 | 0.05 | 48 | |
| 20260507110504 | 16 | 201 | 0.0 | 3.2 | 0.00 | 0.69 | 0.05 | 46 | |
| 20260507110004 | 16 | 245 | 0.0 | 4.8 | 0.00 | 0.69 | 0.05 | 46 | |
| 20260507105504 | 16 | 269 | 0.0 | 4.8 | 0.00 | 0.69 | 0.05 | 47 | |
| 20260507105004 | 16 | 248 | 0.0 | 6.4 | 0.00 | 0.71 | 0.05 | 50 | |
| 20260507104504 | 16 | 245 | 0.0 | 6.4 | 0.00 | 0.71 | 0.05 | 48 | |
| 20260507104004 | 16 | 149 | 1.6 | 3.2 | 0.00 | 0.76 | 0.05 | 51 | |
| 20260507103504 | 16 | 211 | 0.0 | 4.8 | 0.00 | 0.76 | 0.05 | 50 | |
| 20260507103004 | 16 | 259 | 0.0 | 6.4 | 0.00 | 0.76 | 0.05 | 50 | |
| 20260507102504 | 16 | 273 | 0.0 | 6.4 | 0.00 | 0.79 | 0.05 | 50 | |
| 20260507102006 | 15 | 298 | 0.0 | 8.0 | 0.00 | 0.79 | 0.05 | 52 | |
| 20260507101504 | 15 | 301 | 0.0 | 8.0 | 0.00 | 0.81 | 0.05 | 51 | |
| 20260507101004 | 15 | 194 | 0.0 | 3.2 | 0.00 | 0.81 | 0.05 | 55 | |
| 20260507100504 | 15 | 241 | 0.0 | 3.2 | 0.00 | 0.81 | 0.05 | 53 | |
| 20260507100004 | 15 | 289 | 0.0 | 3.2 | 0.00 | 0.81 | 0.05 | 53 | |
| 20260507095504 | 15 | 293 | 0.0 | 6.4 | 0.00 | 0.81 | 0.05 | 53 | |
| 20260507095004 | 16 | 267 | 0.0 | 6.4 | 0.00 | 0.81 | 0.05 | 53 | |
| 20260507094504 | 16 | 254 | 1.6 | 6.4 | 0.00 | 0.81 | 0.05 | 54 | |
| 20260507094004 | 16 | 288 | 1.6 | 11.3 | 0.00 | 0.81 | 0.05 | 55 | |
| 20260507093504 | 16 | 300 | 3.2 | 11.3 | 0.00 | 0.81 | 0.05 | 56 | |
| 20260507093004 | 15 | 327 | 0.0 | 4.8 | 0.00 | 0.81 | 0.05 | 66 | |
| 20260507092504 | 15 | 311 | 1.6 | 4.8 | 0.00 | 0.81 | 0.05 | 69 | |
| 20260507092004 | 13 | 296 | 1.6 | 4.8 | 0.00 | 0.81 | 0.05 | 68 | |
| 20260507091504 | 13 | 292 | 1.6 | 3.2 | 0.00 | 0.81 | 0.05 | 69 | |
| 20260507091004 | 13 | 267 | 0.0 | 3.2 | 0.00 | 0.81 | 0.05 | 70 | |
| 20260507090504 | 13 | 254 | 0.0 | 4.8 | 0.00 | 0.81 | 0.05 | 70 | |
| 20260507090005 | 13 | 250 | 0.0 | 4.8 | 0.00 | 0.81 | 0.05 | 70 | |
| 20260507085504 | 13 | 198 | 3.2 | 6.4 | 0.00 | 0.81 | 0.05 | 70 | |
| 20260507085004 | 13 | 208 | 1.6 | 6.4 | 0.00 | 0.81 | 0.05 | 70 | |
| 20260507084504 | 13 | 238 | 1.6 | 6.4 | 0.00 | 0.81 | 0.05 | 70 | |
| 20260507084004 | 13 | 245 | 1.6 | 6.4 | 0.00 | 0.81 | 0.05 | 72 | |
| 20260507083504 | 13 | 213 | 0.0 | 3.2 | 0.00 | 0.81 | 0.05 | 75 | |
| 20260507083004 | 13 | 222 | 0.0 | 4.8 | 0.00 | 0.81 | 0.05 | 75 | |
| 20260507082504 | 12 | 244 | 0.0 | 4.8 | 0.00 | 0.81 | 0.05 | 75 | |
| 20260507082004 | 12 | 253 | 3.2 | 6.4 | 0.00 | 0.81 | 0.05 | 77 | |
| 20260507081504 | 12 | 270 | 1.6 | 6.4 | 0.00 | 0.81 | 0.05 | 79 | |
| 20260507081004 | 12 | 276 | 1.6 | 3.2 | 0.00 | 0.81 | 0.05 | 82 | |
| 20260507080504 | 12 | 251 | 0.0 | 3.2 | 0.00 | 0.81 | 0.05 | 83 | |
| 20260507080004 | 12 | 187 | 0.0 | 4.8 | 0.00 | 0.81 | 0.05 | 83 | |
| 20260507075504 | 11 | 191 | 0.0 | 4.8 | 0.00 | 0.81 | 0.05 | 84 | |
| 20260507075004 | 11 | 215 | 0.0 | 3.2 | 0.00 | 0.81 | 0.05 | 85 | |
| 20260507074504 | 11 | 174 | 0.0 | 3.2 | 0.00 | 0.81 | 0.05 | 85 | |
| 20260507074004 | 11 | 178 | 0.0 | 3.2 | 0.00 | 0.81 | 0.05 | 85 | |
| 20260507073504 | 11 | 186 | 0.0 | 3.2 | 0.00 | 0.81 | 0.05 | 86 | |
| 20260507073004 | 11 | 173 | 0.0 | 3.2 | 0.00 | 0.81 | 0.05 | 86 | |
| 20260507072504 | 11 | 254 | 0.0 | 3.2 | 0.00 | 0.81 | 0.05 | 86 | |
| 20260507072004 | 11 | 236 | 0.0 | 3.2 | 0.00 | 0.81 | 0.05 | 87 | |
| 20260507071504 | 11 | 134 | 0.0 | 3.2 | 0.00 | 0.81 | 0.05 | 87 | |
| 20260507071004 | 11 | 49 | 0.0 | 3.2 | 0.00 | 0.81 | 0.05 | 87 | |
| 20260507070504 | 11 | 65 | 0.0 | 4.8 | 0.00 | 0.81 | 0.05 | 87 | |
| 20260507070008 | 11 | 132 | 0.0 | 4.8 | 0.00 | 0.81 | 0.05 | 87 | |
| 20260507065504 | 11 | 146 | 1.6 | 4.8 | 0.00 | 0.81 | 0.05 | 87 | |
| 20260507065004 | 11 | 147 | 0.0 | 3.2 | 0.00 | 0.81 | 0.05 | 88 | |
| 20260507064504 | 11 | 135 | 0.0 | 3.2 | 0.00 | 0.81 | 0.05 | 88 | |
| 20260507064004 | 11 | 180 | 0.0 | 1.6 | 0.00 | 0.81 | 0.05 | 88 | |
| 20260507063504 | 10 | 180 | 0.0 | 1.6 | 0.00 | 0.81 | 0.05 | 88 | |
| 20260507063004 | 10 | 0 | 0.0 | 0.0 | 0.00 | 0.81 | 0.05 | 87 | |
| 20260507062504 | 10 | 135 | 0.0 | 3.2 | 0.00 | 0.81 | 0.05 | 87 | |
| 20260507062004 | 10 | 127 | 0.0 | 3.2 | 0.00 | 0.81 | 0.05 | 87 | |
| 20260507061504 | 10 | 121 | 0.0 | 3.2 | 0.00 | 0.81 | 0.05 | 87 | |
| 20260507061004 | 10 | 130 | 0.0 | 1.6 | 0.00 | 0.81 | 0.05 | 87 | |
| 20260507060504 | 10 | 135 | 0.0 | 3.2 | 0.00 | 0.81 | 0.05 | 88 | |
| 20260507060004 | 10 | 130 | 0.0 | 3.2 | 0.00 | 0.81 | 0.05 | 88 | |
| 20260507055504 | 10 | 129 | 0.0 | 3.2 | 0.00 | 0.81 | 0.05 | 88 | |
| 20260507055004 | 10 | 140 | 0.0 | 3.2 | 0.03 | 0.81 | 0.05 | 88 | |
| 20260507054504 | 10 | 153 | 0.0 | 3.2 | 0.03 | 0.81 | 0.05 | 88 | |
| 20260507054004 | 10 | 177 | 0.0 | 3.2 | 0.03 | 0.81 | 0.05 | 88 | |
| 20260507053504 | 10 | 161 | 0.0 | 1.6 | 0.03 | 0.81 | 0.05 | 88 | |
| 20260507053004 | 10 | 154 | 0.0 | 1.6 | 0.03 | 0.81 | 0.05 | 88 | |
| 20260507052504 | 10 | 178 | 0.0 | 1.6 | 0.03 | 0.81 | 0.05 | 88 | |
| 20260507052004 | 10 | 177 | 0.0 | 1.6 | 0.03 | 0.81 | 0.05 | 88 | |
| 20260507051504 | 10 | 142 | 0.0 | 3.2 | 0.03 | 0.81 | 0.05 | 88 | |
| 20260507051004 | 10 | 132 | 0.0 | 3.2 | 0.03 | 0.81 | 0.05 | 88 | |
| 20260507050504 | 10 | 141 | 0.0 | 3.2 | 0.03 | 0.81 | 0.05 | 88 | |
| 20260507050004 | 10 | 136 | 0.0 | 3.2 | 0.03 | 0.81 | 0.05 | 88 | |
| 20260507045504 | 10 | 129 | 1.6 | 3.2 | 0.03 | 0.81 | 0.05 | 88 | |
| 20260507045004 | 10 | 126 | 0.0 | 3.2 | 0.00 | 0.79 | 0.03 | 88 | |
| 20260507044504 | 10 | 128 | 0.0 | 3.2 | 0.00 | 0.79 | 0.03 | 88 | |
| 20260507044003 | 10 | 131 | 0.0 | 3.2 | 0.00 | 0.79 | 0.03 | 88 | |
| 20260507043504 | 10 | 135 | 0.0 | 3.2 | 0.00 | 0.79 | 0.03 | 88 | |
| 20260507043004 | 10 | 224 | 0.0 | 3.2 | 0.00 | 0.79 | 0.03 | 88 | |
| 20260507042504 | 10 | 243 | 0.0 | 3.2 | 0.00 | 0.79 | 0.03 | 88 | |
| 20260507042004 | 10 | 0 | 0.0 | 0.0 | 0.00 | 0.79 | 0.03 | 88 | |
| 20260507041503 | 10 | 280 | 0.0 | 1.6 | 0.00 | 0.79 | 0.03 | 88 | |
| 20260507041003 | 10 | 274 | 0.0 | 1.6 | 0.00 | 0.79 | 0.03 | 88 | |
| 20260507040504 | 10 | 288 | 0.0 | 1.6 | 0.00 | 0.79 | 0.03 | 88 | |
| 20260507040004 | 10 | 291 | 0.0 | 3.2 | 0.00 | 0.79 | 0.03 | 88 | |
| 20260507035504 | 10 | 285 | 0.0 | 3.2 | 0.00 | 0.79 | 0.03 | 89 | |
| 20260507035004 | 10 | 285 | 0.0 | 3.2 | 0.00 | 0.79 | 0.03 | 89 | |
| 20260507034504 | 10 | 271 | 0.0 | 3.2 | 0.00 | 0.79 | 0.03 | 89 | |
| 20260507034004 | 10 | 273 | 0.0 | 3.2 | 0.00 | 0.79 | 0.03 | 88 | |
| 20260507033503 | 10 | 282 | 0.0 | 3.2 | 0.00 | 0.79 | 0.03 | 88 | |
| 20260507033003 | 10 | 266 | 0.0 | 3.2 | 0.00 | 0.79 | 0.03 | 88 | |
| 20260507032504 | 10 | 237 | 0.0 | 3.2 | 0.00 | 0.79 | 0.03 | 88 | |
| 20260507032003 | 10 | 220 | 0.0 | 3.2 | 0.00 | 0.79 | 0.03 | 88 | |
| 20260507031503 | 10 | 204 | 0.0 | 3.2 | 0.00 | 0.79 | 0.03 | 88 | |
| 20260507031004 | 10 | 184 | 0.0 | 3.2 | 0.00 | 0.79 | 0.03 | 88 | |
| 20260507030503 | 10 | 180 | 0.0 | 3.2 | 0.00 | 0.79 | 0.03 | 88 | |
| 20260507030004 | 10 | 227 | 0.0 | 3.2 | 0.00 | 0.79 | 0.03 | 88 | |
| 20260507025503 | 10 | 258 | 0.0 | 3.2 | 0.00 | 0.79 | 0.03 | 88 | |
| 20260507025003 | 10 | 227 | 0.0 | 3.2 | 0.00 | 0.79 | 0.03 | 88 | |
| 20260507024503 | 10 | 233 | 0.0 | 3.2 | 0.00 | 0.79 | 0.03 | 88 | |
| 20260507024003 | 10 | 259 | 0.0 | 3.2 | 0.00 | 0.79 | 0.03 | 88 | |
| 20260507023503 | 10 | 263 | 0.0 | 3.2 | 0.00 | 0.79 | 0.03 | 88 | |
| 20260507023004 | 10 | 247 | 0.0 | 1.6 | 0.00 | 0.79 | 0.03 | 88 | |
| 20260507022504 | 10 | 180 | 0.0 | 1.6 | 0.00 | 0.79 | 0.03 | 88 | |
| 20260507022003 | 10 | 159 | 0.0 | 3.2 | 0.00 | 0.79 | 0.03 | 88 | |
| 20260507021503 | 10 | 145 | 0.0 | 3.2 | 0.00 | 0.79 | 0.03 | 88 | |
| 20260507021003 | 10 | 135 | 0.0 | 1.6 | 0.00 | 0.79 | 0.03 | 88 | |
| 20260507020503 | 10 | 140 | 0.0 | 1.6 | 0.00 | 0.79 | 0.03 | 87 | |
| 20260507020004 | 10 | 162 | 0.0 | 1.6 | 0.00 | 0.79 | 0.03 | 87 | |
| 20260507015503 | 10 | 180 | 0.0 | 1.6 | 0.00 | 0.79 | 0.03 | 87 | |
| 20260507015004 | 10 | 180 | 0.0 | 1.6 | 0.00 | 0.79 | 0.03 | 87 | |
| 20260507014503 | 10 | 150 | 0.0 | 1.6 | 0.00 | 0.79 | 0.03 | 87 | |
| 20260507014003 | 10 | 150 | 0.0 | 1.6 | 0.00 | 0.79 | 0.03 | 87 | |
| 20260507013504 | 10 | 180 | 0.0 | 1.6 | 0.03 | 0.79 | 0.03 | 87 | |
| 20260507013003 | 10 | 0 | 0.0 | 0.0 | 0.03 | 0.79 | 0.03 | 87 | |
| 20260507012503 | 10 | 0 | 0.0 | 0.0 | 0.03 | 0.79 | 0.03 | 87 | |
| 20260507012003 | 10 | 247 | 0.0 | 1.6 | 0.03 | 0.79 | 0.03 | 87 | |
| 20260507011503 | 10 | 215 | 0.0 | 1.6 | 0.03 | 0.79 | 0.03 | 87 | |
| 20260507011003 | 10 | 135 | 0.0 | 1.6 | 0.03 | 0.79 | 0.03 | 86 | |
| 20260507010503 | 10 | 0 | 0.0 | 0.0 | 0.03 | 0.79 | 0.03 | 86 | |
| 20260507010004 | 10 | 0 | 0.0 | 0.0 | 0.03 | 0.79 | 0.03 | 86 | |
| 20260507005503 | 10 | 0 | 0.0 | 0.0 | 0.03 | 0.79 | 0.03 | 86 | |
| 20260507005003 | 10 | 360 | 0.0 | 1.6 | 0.03 | 0.79 | 0.03 | 86 | |
| 20260507004503 | 10 | 360 | 0.0 | 1.6 | 0.03 | 0.79 | 0.03 | 86 | |
| 20260507004003 | 10 | 0 | 0.0 | 0.0 | 0.03 | 0.79 | 0.03 | 86 | |
| 20260507003503 | 10 | 0 | 0.0 | 0.0 | 0.00 | 0.76 | 0.00 | 86 | |
| 20260507003003 | 10 | 135 | 0.0 | 1.6 | 0.00 | 0.76 | 0.00 | 86 | |
| 20260507002503 | 10 | 135 | 0.0 | 1.6 | 0.00 | 0.76 | 0.00 | 86 | |
| 20260507002003 | 10 | 135 | 0.0 | 1.6 | 0.00 | 0.76 | 0.00 | 86 | |
| 20260507001503 | 10 | 135 | 0.0 | 1.6 | 0.00 | 0.76 | 0.00 | 85 | |
| 20260507001003 | 10 | 0 | 0.0 | 0.0 | 0.00 | 0.76 | 0.00 | 85 | |
| 20260507000503 | 10 | 0 | 0.0 | 0.0 | 0.00 | 0.76 | 0.00 | 85 | |
| 20260507000004 | 10 | 0 | 0.0 | 0.0 | 0.00 | 0.76 | 0.00 | 85 | |
| 20260506235503 | 10 | 0 | 0.0 | 0.0 | 0.00 | 0.76 | 0.00 | 85 | |
| 20260506235003 | 10 | 0 | 0.0 | 0.0 | 0.00 | 0.76 | 0.00 | 84 | |
| 20260506234504 | 10 | 0 | 0.0 | 0.0 | 0.00 | 0.76 | 0.00 | 84 | |
| 20260506234003 | 10 | 0 | 0.0 | 0.0 | 0.00 | 0.76 | 0.00 | 84 | |
| 20260506233503 | 10 | 0 | 0.0 | 0.0 | 0.00 | 0.76 | 0.00 | 84 | |
| 20260506233003 | 10 | 0 | 0.0 | 0.0 | 0.00 | 0.76 | 0.00 | 83 | |
| 20260506232503 | 10 | 0 | 0.0 | 0.0 | 0.00 | 0.76 | 0.00 | 83 | |
| 20260506232003 | 10 | 0 | 0.0 | 0.0 | 0.00 | 0.76 | 0.00 | 83 | |
| 20260506231503 | 10 | 0 | 0.0 | 0.0 | 0.00 | 0.76 | 0.00 | 83 | |
| 20260506231003 | 10 | 0 | 0.0 | 0.0 | 0.00 | 0.76 | 0.00 | 82 | |
| 20260506230503 | 10 | 0 | 0.0 | 0.0 | 0.00 | 0.76 | 0.00 | 82 | |
| 20260506230003 | 10 | 0 | 0.0 | 0.0 | 0.00 | 0.76 | 0.00 | 82 | |
| 20260506225503 | 10 | 0 | 0.0 | 0.0 | 0.00 | 0.76 | 0.00 | 81 | |
| 20260506225003 | 10 | 0 | 0.0 | 0.0 | 0.00 | 0.76 | 0.00 | 81 | |
| 20260506224503 | 10 | 135 | 0.0 | 3.2 | 0.00 | 0.76 | 0.00 | 81 | |
| 20260506224003 | 10 | 135 | 0.0 | 3.2 | 0.00 | 0.76 | 0.00 | 80 | |
| 20260506223503 | 10 | 135 | 0.0 | 3.2 | 0.00 | 0.76 | 0.00 | 80 | |
| 20260506223003 | 10 | 135 | 0.0 | 3.2 | 0.00 | 0.76 | 0.00 | 80 | |
| 20260506222503 | 10 | 135 | 0.0 | 3.2 | 0.00 | 0.76 | 0.00 | 79 | |
| 20260506222003 | 10 | 135 | 0.0 | 3.2 | 0.00 | 0.76 | 0.00 | 79 | |
| 20260506221504 | 10 | 135 | 0.0 | 1.6 | 0.00 | 0.76 | 0.00 | 79 | |
| 20260506221003 | 10 | 0 | 0.0 | 0.0 | 0.00 | 0.76 | 0.00 | 79 | |
| 20260506220503 | 10 | 153 | 0.0 | 1.6 | 0.00 | 0.76 | 0.00 | 80 | |
| 20260506220004 | 10 | 136 | 0.0 | 3.2 | 0.00 | 0.76 | 0.00 | 80 | |
| 20260506215503 | 10 | 168 | 0.0 | 3.2 | 0.00 | 0.76 | 0.76 | 81 | |
| 20260506215004 | 10 | 215 | 0.0 | 9.7 | 0.00 | 0.76 | 0.76 | 82 | |
| 20260506214503 | 10 | 201 | 1.6 | 9.7 | 0.00 | 0.76 | 0.76 | 83 | |
| 20260506214003 | 10 | 179 | 3.2 | 9.7 | 0.00 | 0.76 | 0.76 | 83 | |
| 20260506213503 | 10 | 185 | 0.0 | 4.8 | 0.00 | 0.76 | 0.76 | 84 | |
| 20260506213003 | 10 | 194 | 1.6 | 6.4 | 0.00 | 0.76 | 0.76 | 84 | |
| 20260506212503 | 10 | 167 | 0.0 | 6.4 | 0.00 | 0.76 | 0.76 | 85 | |
| 20260506212003 | 10 | 155 | 1.6 | 6.4 | 0.00 | 0.76 | 0.76 | 85 | |
| 20260506211503 | 10 | 149 | 0.0 | 3.2 | 0.00 | 0.76 | 0.76 | 86 | |
| 20260506211003 | 10 | 144 | 0.0 | 3.2 | 0.00 | 0.76 | 0.76 | 86 | |
| 20260506210503 | 10 | 130 | 1.6 | 3.2 | 0.00 | 0.76 | 0.76 | 86 | |
| 20260506210003 | 10 | 148 | 1.6 | 3.2 | 0.00 | 0.76 | 0.76 | 86 | |
| 20260506205503 | 10 | 164 | 0.0 | 3.2 | 0.00 | 0.76 | 0.76 | 86 | |
| 20260506205003 | 10 | 154 | 0.0 | 3.2 | 0.00 | 0.76 | 0.76 | 87 | |
| 20260506204503 | 10 | 188 | 0.0 | 1.6 | 0.00 | 0.76 | 0.76 | 87 | |
| 20260506204003 | 11 | 174 | 0.0 | 3.2 | 0.00 | 0.76 | 0.76 | 87 | |
| 20260506203503 | 11 | 197 | 0.0 | 3.2 | 0.00 | 0.76 | 0.76 | 87 | |
| 20260506203003 | 11 | 189 | 0.0 | 3.2 | 0.00 | 0.76 | 0.76 | 88 | |
| 20260506202503 | 11 | 257 | 1.6 | 3.2 | 0.00 | 0.76 | 0.76 | 88 | |
| 20260506202003 | 11 | 286 | 0.0 | 3.2 | 0.00 | 0.76 | 0.76 | 88 | |
| 20260506201503 | 11 | 270 | 0.0 | 3.2 | 0.00 | 0.76 | 0.76 | 88 | |
| 20260506201003 | 11 | 243 | 1.6 | 3.2 | 0.00 | 0.76 | 0.76 | 88 | |
| 20260506200503 | 11 | 240 | 0.0 | 3.2 | 0.00 | 0.76 | 0.76 | 88 | |
| 20260506200004 | 11 | 269 | 0.0 | 3.2 | 0.00 | 0.76 | 0.76 | 88 | |
| 20260506195503 | 11 | 233 | 0.0 | 1.6 | 0.00 | 0.76 | 0.76 | 88 | |
| 20260506195003 | 11 | 225 | 0.0 | 1.6 | 0.00 | 0.76 | 0.76 | 88 | |
| 20260506194503 | 11 | 225 | 0.0 | 1.6 | 0.00 | 0.76 | 0.76 | 87 | |
| 20260506194003 | 11 | 225 | 0.0 | 1.6 | 0.00 | 0.76 | 0.76 | 87 | |
| 20260506193503 | 11 | 225 | 0.0 | 1.6 | 0.00 | 0.76 | 0.76 | 87 | |
| 20260506193003 | 11 | 135 | 0.0 | 1.6 | 0.00 | 0.76 | 0.76 | 87 | |
| 20260506192503 | 11 | 150 | 0.0 | 1.6 | 0.00 | 0.76 | 0.76 | 86 | |
| 20260506192003 | 11 | 152 | 0.0 | 1.6 | 0.00 | 0.76 | 0.76 | 86 | |
| 20260506191503 | 11 | 0 | 0.0 | 0.0 | 0.00 | 0.76 | 0.76 | 86 | |
| 20260506191003 | 11 | 0 | 0.0 | 0.0 | 0.00 | 0.76 | 0.76 | 86 | |
| 20260506190503 | 11 | 0 | 0.0 | 0.0 | 0.00 | 0.76 | 0.76 | 85 | |
| 20260506190004 | 11 | 0 | 0.0 | 0.0 | 0.00 | 0.76 | 0.76 | 85 | |
| 20260506185503 | 11 | 0 | 0.0 | 0.0 | 0.00 | 0.76 | 0.76 | 85 | |
| 20260506185003 | 11 | 0 | 0.0 | 0.0 | 0.00 | 0.76 | 0.76 | 84 | |
| 20260506184503 | 11 | 0 | 0.0 | 0.0 | 0.03 | 0.76 | 0.76 | 84 | |
| 20260506184003 | 11 | 0 | 0.0 | 0.0 | 0.03 | 0.76 | 0.76 | 84 | |
| 20260506183503 | 11 | 0 | 0.0 | 0.0 | 0.03 | 0.76 | 0.76 | 84 | |
| 20260506183003 | 11 | 0 | 0.0 | 0.0 | 0.03 | 0.76 | 0.76 | 84 | |
| 20260506182503 | 11 | 0 | 0.0 | 0.0 | 0.03 | 0.76 | 0.76 | 84 | |
| 20260506182003 | 11 | 0 | 0.0 | 0.0 | 0.03 | 0.76 | 0.76 | 83 | |
| 20260506181503 | 11 | 0 | 0.0 | 0.0 | 0.03 | 0.76 | 0.76 | 83 | |
| 20260506181003 | 11 | 0 | 0.0 | 0.0 | 0.03 | 0.76 | 0.76 | 83 | |
| 20260506180503 | 11 | 0 | 0.0 | 0.0 | 0.03 | 0.76 | 0.76 | 82 | |
| 20260506180004 | 11 | 247 | 0.0 | 1.6 | 0.03 | 0.76 | 0.76 | 82 | |
| 20260506175503 | 11 | 263 | 0.0 | 1.6 | 0.03 | 0.76 | 0.76 | 82 | |
| 20260506175003 | 11 | 259 | 0.0 | 1.6 | 0.03 | 0.76 | 0.76 | 82 | |
| 20260506174503 | 11 | 239 | 0.0 | 1.6 | 0.00 | 0.71 | 0.71 | 82 | |
| 20260506174003 | 11 | 256 | 0.0 | 1.6 | 0.00 | 0.71 | 0.71 | 82 | |
| 20260506173503 | 11 | 315 | 0.0 | 1.6 | 0.00 | 0.71 | 0.71 | 81 | |
| 20260506173003 | 11 | 285 | 0.0 | 1.6 | 0.03 | 0.71 | 0.71 | 81 | |
| 20260506172503 | 11 | 290 | 0.0 | 1.6 | 0.03 | 0.71 | 0.71 | 81 | |
| 20260506172003 | 11 | 276 | 0.0 | 3.2 | 0.03 | 0.71 | 0.71 | 80 | |
| 20260506171503 | 11 | 267 | 0.0 | 3.2 | 0.03 | 0.71 | 0.71 | 80 | |
| 20260506171003 | 11 | 0 | 0.0 | 0.0 | 0.03 | 0.71 | 0.71 | 80 | |
| 20260506170503 | 12 | 315 | 0.0 | 1.6 | 0.03 | 0.71 | 0.71 | 79 | |
| 20260506170003 | 12 | 315 | 0.0 | 1.6 | 0.03 | 0.71 | 0.71 | 79 | |
| 20260506165503 | 12 | 326 | 0.0 | 1.6 | 0.03 | 0.71 | 0.71 | 79 | |
| 20260506165003 | 12 | 199 | 0.0 | 3.2 | 0.03 | 0.71 | 0.71 | 79 | |
| 20260506164505 | 12 | 194 | 0.0 | 3.2 | 0.03 | 0.71 | 0.71 | 78 |